Location: Banff
(51.1667°N, 115.5667°W)
Time: 03:23:16
(UTC+00:00)

deb Explorer IX - Pass Details

Date: 30 November 2020
Orbit: 536 x 1104 km, 38.8° (Epoch: 25 January)

Event Time Altitude Azimuth Distance (km) Brightness Sun altitude
Rises 02:44:20 0° 251° (WSW) 3,351 ? -28.1°
Reaches altitude 10° 02:47:39 10° 235° (SW) 2,297 ? -28.6°
Enters shadow 02:51:09 19° 194° (SSW) 1,651 ? -29.2°
